View from above orbital plane
|
View from above satellite
|
Ground track
|
The orbit data is extracted from the following two-line orbital elements,
1 31702U 07027B 18112.91392953 0.00000000 00000-0 00000-0 0 06
2 31702 63.3626 40.0841 0319435 7.0851 352.9149 14.18624130 07
Epoch (UTC): | 22 April 2018 21:56:03 |
Eccentricity: | 0.0319435 |
inclination: | 63.3626° |
perigee height: | 600 km |
apogee height: | 1060 km |
right ascension of ascending node: | 40.0841° |
argument of perigee: | 7.0851° |
revolutions per day: | 14.18624130 |
mean anomaly at epoch: | 352.9149° |
orbit number at epoch: | 0 |
The dashed part of the orbit path shows where the satellite is in the earth's shadow,
|
|